| time (UTC) | temp F | wind direction | speed MPH | gust MPH | rain 1hr in | rain 24hr in | rain mn in | humidity % | barometer mb |
| 20260906075310 | 61 | 307 | 0.0 | 0.0 | 0.00 | 0.00 | 0.00 | 72 | |
| 20260906074819 | 61 | 307 | 0.0 | 0.0 | 0.00 | 0.00 | 0.00 | 71 | |
| 20260906074301 | 61 | 307 | 0.0 | 0.0 | 0.00 | 0.00 | 0.00 | 71 | |
| 20260906073746 | 61 | 307 | 0.0 | 0.0 | 0.00 | 0.00 | 0.00 | 71 | |
| 20260906073233 | 61 | 307 | 0.0 | 0.0 | 0.00 | 0.00 | 0.00 | 71 | |
| 20260906072723 | 61 | 307 | 0.0 | 0.0 | 0.00 | 0.00 | 0.00 | 72 | |
| 20260906072231 | 61 | 307 | 0.0 | 0.0 | 0.00 | 0.00 | 0.00 | 71 | |
| 20260906071732 | 61 | 307 | 0.0 | 0.0 | 0.00 | 0.00 | 0.00 | 71 | |
| 20260906071219 | 61 | 307 | 0.0 | 0.0 | 0.00 | 0.00 | 0.00 | 71 | |
| 20260906070052 | 62 | 307 | 0.0 | 0.0 | 0.00 | 0.00 | 0.00 | 70 | |
| 20260906064938 | 62 | 307 | 0.0 | 0.0 | 0.00 | 0.00 | 0.00 | 70 | |
| 20260906064443 | 62 | 307 | 0.0 | 0.0 | 0.00 | 0.00 | 0.00 | 69 | |
| 20260906063926 | 62 | 307 | 0.0 | 0.0 | 0.00 | 0.00 | 0.00 | 69 | |
| 20260906063423 | 62 | 307 | 0.0 | 0.0 | 0.00 | 0.00 | 0.00 | 69 | |
| 20260906062908 | 62 | 307 | 0.0 | 0.0 | 0.00 | 0.00 | 0.00 | 68 | |
| 20260906062406 | 63 | 307 | 0.0 | 0.0 | 0.00 | 0.00 | 0.00 | 69 | |
| 20260906061849 | 63 | 307 | 0.0 | 0.0 | 0.00 | 0.00 | 0.00 | 68 | |
| 20260906061353 | 63 | 307 | 0.0 | 0.0 | 0.00 | 0.00 | 0.00 | 69 | |
| 20260906060845 | 63 | 307 | 0.0 | 0.0 | 0.00 | 0.00 | 0.00 | 68 | |
| 20260906055710 | 64 | 307 | 0.0 | 0.0 | 0.00 | 0.00 | 0.00 | 68 | |
| 20260906055212 | 64 | 307 | 0.0 | 0.0 | 0.00 | 0.00 | 0.00 | 68 | |
| 20260906054709 | 64 | 307 | 0.0 | 0.0 | 0.00 | 0.00 | 0.00 | 67 | |
| 20260906054217 | 64 | 307 | 0.0 | 0.0 | 0.00 | 0.00 | 0.00 | 67 | |
| 20260906053706 | 65 | 307 | 0.0 | 0.0 | 0.00 | 0.00 | 0.00 | 67 | |
| 20260906053206 | 65 | 307 | 0.0 | 0.0 | 0.00 | 0.00 | 0.00 | 67 | |
| 20260906052701 | 65 | 307 | 0.0 | 0.0 | 0.00 | 0.00 | 0.00 | 67 | |
| 20260906051540 | 65 | 307 | 0.0 | 0.0 | 0.00 | 0.00 | 0.00 | 66 | |
| 20260906051025 | 65 | 307 | 0.0 | 0.0 | 0.00 | 0.00 | 0.00 | 67 | |
| 20260906050531 | 66 | 307 | 0.0 | 0.0 | 0.00 | 0.00 | 0.00 | 65 | |
| 20260906050034 | 66 | 307 | 0.0 | 0.0 | 0.00 | 0.00 | 0.00 | 65 | |
| 20260906045526 | 66 | 307 | 0.0 | 0.0 | 0.00 | 0.00 | 0.00 | 65 | |
| 20260906045033 | 66 | 307 | 0.0 | 0.0 | 0.00 | 0.00 | 0.00 | 65 | |
| 20260906044530 | 67 | 307 | 0.0 | 0.0 | 0.00 | 0.00 | 0.00 | 64 | |
| 20260906044016 | 67 | 307 | 0.0 | 0.0 | 0.00 | 0.00 | 0.00 | 63 | |
| 20260906043522 | 67 | 307 | 0.0 | 0.0 | 0.00 | 0.00 | 0.00 | 63 | |
| 20260906042337 | 68 | 307 | 0.0 | 0.0 | 0.00 | 0.00 | 0.00 | 63 | |
| 20260906041837 | 68 | 307 | 0.0 | 0.0 | 0.00 | 0.00 | 0.00 | 63 | |
| 20260906041330 | 69 | 307 | 0.0 | 0.0 | 0.00 | 0.00 | 0.00 | 62 | |
| 20260906040839 | 69 | 307 | 0.0 | 0.0 | 0.00 | 0.00 | 0.00 | 62 | |
| 20260906040326 | 69 | 307 | 0.0 | 0.0 | 0.00 | 0.00 | 0.00 | 62 | |
| 20260906035815 | 69 | 307 | 0.0 | 0.0 | 0.00 | 0.00 | 0.00 | 62 | |
| 20260906035259 | 70 | 307 | 0.0 | 0.0 | 0.00 | 0.00 | 0.00 | 62 | |
| 20260906033503 | 71 | 307 | 0.0 | 0.0 | 0.00 | 0.00 | 0.00 | 62 | |
| 20260906032946 | 72 | 307 | 0.0 | 0.0 | 0.00 | 0.00 | 0.00 | 61 | |
| 20260906032426 | 72 | 307 | 0.0 | 0.0 | 0.00 | 0.00 | 0.00 | 60 | |
| 20260906030658 | 74 | 307 | 0.0 | 0.0 | 0.00 | 0.00 | 0.00 | 61 | |
| 20260906030207 | 74 | 307 | 0.0 | 0.0 | 0.00 | 0.00 | 0.00 | 60 | |
| 20260906025716 | 75 | 307 | 0.0 | 0.0 | 0.00 | 0.00 | 0.00 | 59 | |
| 20260906025222 | 75 | 307 | 0.0 | 0.0 | 0.00 | 0.00 | 0.00 | 58 | |
| 20260906024723 | 76 | 307 | 0.0 | 0.0 | 0.00 | 0.00 | 0.00 | 57 | |
| 20260906024218 | 76 | 307 | 0.0 | 0.0 | 0.00 | 0.00 | 0.00 | 56 | |
| 20260906023658 | 77 | 307 | 0.0 | 0.0 | 0.00 | 0.00 | 0.00 | 56 | |
| 20260906023139 | 78 | 307 | 0.0 | 0.0 | 0.00 | 0.00 | 0.00 | 54 | |
| 20260906022623 | 78 | 307 | 0.0 | 0.0 | 0.00 | 0.00 | 0.00 | 54 | |
| 20260906022118 | 79 | 307 | 0.0 | 0.0 | 0.00 | 0.00 | 0.00 | 53 | |
| 20260906021601 | 79 | 307 | 0.0 | 0.0 | 0.00 | 0.00 | 0.00 | 52 | |
| 20260906021100 | 80 | 307 | 0.0 | 0.0 | 0.00 | 0.00 | 0.00 | 51 | |
| 20260906020546 | 81 | 307 | 0.0 | 0.0 | 0.00 | 0.00 | 0.00 | 50 | |
| 20260906020045 | 81 | 307 | 0.0 | 0.0 | 0.00 | 0.00 | 0.00 | 49 | |
| 20260906015536 | 81 | 307 | 0.0 | 1.0 | 0.00 | 0.00 | 0.00 | 49 | |
| 20260906015021 | 82 | 307 | 0.0 | 0.0 | 0.00 | 0.00 | 0.00 | 49 | |
| 20260906014507 | 82 | 307 | 0.0 | 2.0 | 0.00 | 0.00 | 0.00 | 48 | |
| 20260906014014 | 83 | 307 | 1.0 | 4.0 | 0.00 | 0.00 | 0.00 | 47 | |
| 20260906012835 | 85 | 307 | 1.0 | 3.0 | 0.00 | 0.00 | 0.00 | 40 | |
| 20260906012332 | 85 | 307 | 1.0 | 3.0 | 0.00 | 0.00 | 0.00 | 39 | |
| 20260906011833 | 86 | 308 | 0.0 | 2.0 | 0.00 | 0.00 | 0.00 | 38 | |
| 20260906011324 | 87 | 308 | 0.0 | 0.0 | 0.00 | 0.00 | 0.00 | 35 | |
| 20260906010829 | 87 | 308 | 0.0 | 1.0 | 0.00 | 0.00 | 0.00 | 33 | |
| 20260906010333 | 88 | 334 | 0.0 | 0.0 | 0.00 | 0.00 | 0.00 | 29 | |
| 20260906004536 | 89 | 335 | 0.0 | 0.0 | 0.00 | 0.00 | 0.00 | 28 | |
| 20260906004027 | 89 | 335 | 0.0 | 6.0 | 0.00 | 0.00 | 0.00 | 28 | |
| 20260906003526 | 90 | 337 | 0.0 | 6.0 | 0.00 | 0.00 | 0.00 | 31 | |
| 20260906003019 | 90 | 5 | 0.0 | 6.0 | 0.00 | 0.00 | 0.00 | 29 | |
| 20260906002508 | 91 | 34 | 0.0 | 5.0 | 0.00 | 0.00 | 0.00 | 28 | |
| 20260906002004 | 92 | 325 | 1.0 | 5.0 | 0.00 | 0.00 | 0.00 | 30 | |
| 20260906001455 | 92 | 309 | 0.0 | 5.0 | 0.00 | 0.00 | 0.00 | 29 | |
| 20260906001002 | 92 | 315 | 0.0 | 3.0 | 0.00 | 0.00 | 0.00 | 27 | |
| 20260906000508 | 93 | 169 | 0.0 | 0.0 | 0.00 | 0.00 | 0.00 | 25 | |
| 20260905235958 | 93 | 169 | 0.0 | 2.0 | 0.00 | 0.00 | 0.00 | 25 | |
| 20260905234818 | 93 | 155 | 0.0 | 2.0 | 0.00 | 0.00 | 0.00 | 25 | |
| 20260905234319 | 93 | 155 | 0.0 | 2.0 | 0.00 | 0.00 | 0.00 | 24 | |
| 20260905233824 | 93 | 150 | 0.0 | 1.0 | 0.00 | 0.00 | 0.00 | 24 | |
| 20260905233312 | 93 | 83 | 0.0 | 1.0 | 0.00 | 0.00 | 0.00 | 25 | |
| 20260905232753 | 93 | 137 | 0.0 | 3.0 | 0.00 | 0.00 | 0.00 | 24 | |
| 20260905232252 | 93 | 156 | 0.0 | 1.0 | 0.00 | 0.00 | 0.00 | 23 | |
| 20260905231746 | 93 | 90 | 0.0 | 0.0 | 0.00 | 0.00 | 0.00 | 24 | |
| 20260905231243 | 93 | 159 | 0.0 | 4.0 | 0.00 | 0.00 | 0.00 | 23 | |
| 20260905230743 | 93 | 94 | 0.0 | 4.0 | 0.00 | 0.00 | 0.00 | 23 | |
| 20260905225624 | 93 | 142 | 0.0 | 3.0 | 0.00 | 0.00 | 0.00 | 23 | |
| 20260905225128 | 93 | 59 | 0.0 | 2.0 | 0.00 | 0.00 | 0.00 | 23 | |
| 20260905223948 | 94 | 49 | 0.0 | 2.0 | 0.00 | 0.00 | 0.00 | 23 | |
| 20260905223445 | 94 | 127 | 0.0 | 4.0 | 0.00 | 0.00 | 0.00 | 23 | |
| 20260905222950 | 94 | 65 | 0.0 | 4.0 | 0.00 | 0.00 | 0.00 | 23 | |
| 20260905222455 | 93 | 110 | 0.0 | 6.0 | 0.00 | 0.00 | 0.00 | 25 | |
| 20260905221347 | 93 | 329 | 1.0 | 6.0 | 0.00 | 0.00 | 0.00 | 24 | |
| 20260905220852 | 94 | 53 | 1.0 | 6.0 | 0.00 | 0.00 | 0.00 | 23 | |
| 20260905220356 | 93 | 183 | 1.0 | 4.0 | 0.00 | 0.00 | 0.00 | 23 | |
| 20260905215852 | 94 | 63 | 0.0 | 4.0 | 0.00 | 0.00 | 0.00 | 23 | |
| 20260905215350 | 94 | 45 | 0.0 | 4.0 | 0.00 | 0.00 | 0.00 | 23 | |
| 20260905214859 | 94 | 127 | 0.0 | 4.0 | 0.00 | 0.00 | 0.00 | 23 | |
| 20260905214347 | 94 | 239 | 0.0 | 4.0 | 0.00 | 0.00 | 0.00 | 24 | |
| 20260905213832 | 94 | 142 | 0.0 | 4.0 | 0.00 | 0.00 | 0.00 | 25 | |
| 20260905213341 | 93 | 74 | 0.0 | 4.0 | 0.00 | 0.00 | 0.00 | 27 | |
| 20260905212833 | 93 | 199 | 0.0 | 4.0 | 0.00 | 0.00 | 0.00 | 26 | |
| 20260905212328 | 93 | 0 | 0.0 | 2.0 | 0.00 | 0.00 | 0.00 | 26 | |
| 20260905211834 | 92 | 38 | 0.0 | 4.0 | 0.00 | 0.00 | 0.00 | 27 | |
| 20260905211331 | 92 | 338 | 0.0 | 4.0 | 0.00 | 0.00 | 0.00 | 26 | |
| 20260905210815 | 92 | 339 | 0.0 | 4.0 | 0.00 | 0.00 | 0.00 | 27 | |
| 20260905210305 | 92 | 16 | 0.0 | 4.0 | 0.00 | 0.00 | 0.00 | 26 | |
| 20260905205751 | 92 | 94 | 1.0 | 5.0 | 0.00 | 0.00 | 0.00 | 25 | |
| 20260905205246 | 92 | 286 | 1.0 | 5.0 | 0.00 | 0.00 | 0.00 | 26 | |
| 20260905204727 | 92 | 295 | 1.0 | 6.0 | 0.00 | 0.00 | 0.00 | 26 | |
| 20260905203606 | 92 | 315 | 1.0 | 6.0 | 0.00 | 0.00 | 0.00 | 29 | |
| 20260905203109 | 92 | 281 | 1.0 | 6.0 | 0.00 | 0.00 | 0.00 | 29 | |
| 20260905202552 | 92 | 284 | 1.0 | 5.0 | 0.00 | 0.00 | 0.00 | 30 | |
| 20260905202043 | 92 | 247 | 0.0 | 4.0 | 0.00 | 0.00 | 0.00 | 30 | |
| 20260905201541 | 92 | 52 | 1.0 | 4.0 | 0.00 | 0.00 | 0.00 | 31 | |
| 20260905201041 | 92 | 61 | 1.0 | 4.0 | 0.00 | 0.00 | 0.00 | 31 | |
| 20260905200536 | 92 | 302 | 1.0 | 4.0 | 0.00 | 0.00 | 0.00 | 31 | |
| 20260905200041 | 92 | 292 | 1.0 | 4.0 | 0.00 | 0.00 | 0.00 | 34 | |
| 20260905195523 | 93 | 15 | 0.0 | 5.0 | 0.00 | 0.00 | 0.00 | 37 | |
| 20260905195013 | 92 | 20 | 0.0 | 5.0 | 0.00 | 0.00 | 0.00 | 38 | |
| 20260905194510 | 92 | 155 | 1.0 | 5.0 | 0.00 | 0.00 | 0.00 | 37 | |
| 20260905194014 | 92 | 134 | 1.0 | 5.0 | 0.00 | 0.00 | 0.00 | 38 | |
| 20260905193459 | 92 | 338 | 1.0 | 5.0 | 0.00 | 0.00 | 0.00 | 37 | |
| 20260905192956 | 93 | 296 | 1.0 | 5.0 | 0.00 | 0.00 | 0.00 | 37 | |
| 20260905192449 | 93 | 224 | 1.0 | 3.0 | 0.00 | 0.00 | 0.00 | 35 | |
| 20260905191952 | 93 | 249 | 0.0 | 3.0 | 0.00 | 0.00 | 0.00 | 35 | |
| 20260905191441 | 93 | 286 | 0.0 | 3.0 | 0.00 | 0.00 | 0.00 | 34 | |
| 20260905190927 | 93 | 0 | 0.0 | 3.0 | 0.00 | 0.00 | 0.00 | 34 | |
| 20260905190411 | 92 | 290 | 0.0 | 3.0 | 0.00 | 0.00 | 0.00 | 35 | |
| 20260905185854 | 92 | 290 | 0.0 | 5.0 | 0.00 | 0.00 | 0.00 | 35 | |
| 20260905185342 | 91 | 290 | 0.0 | 5.0 | 0.00 | 0.00 | 0.00 | 35 | |
| 20260905184828 | 90 | 289 | 0.0 | 5.0 | 0.00 | 0.00 | 0.00 | 36 | |
| 20260905184328 | 90 | 277 | 1.0 | 5.0 | 0.00 | 0.00 | 0.00 | 36 | |
| 20260905183828 | 90 | 281 | 1.0 | 5.0 | 0.00 | 0.00 | 0.00 | 36 | |
| 20260905183333 | 90 | 319 | 0.0 | 4.0 | 0.00 | 0.00 | 0.00 | 37 | |
| 20260905182836 | 89 | 296 | 0.0 | 3.0 | 0.00 | 0.00 | 0.00 | 37 | |
| 20260905182336 | 89 | 296 | 1.0 | 3.0 | 0.00 | 0.00 | 0.00 | 38 | |
| 20260905181825 | 88 | 298 | 0.0 | 3.0 | 0.00 | 0.00 | 0.00 | 40 | |
| 20260905180700 | 87 | 213 | 0.0 | 1.0 | 0.00 | 0.00 | 0.00 | 42 | |
| 20260905175542 | 86 | 267 | 0.0 | 2.0 | 0.00 | 0.00 | 0.00 | 44 | |
| 20260905175033 | 85 | 269 | 0.0 | 2.0 | 0.00 | 0.00 | 0.00 | 45 | |
| 20260905174513 | 85 | 252 | 0.0 | 2.0 | 0.00 | 0.00 | 0.00 | 47 | |
| 20260905174016 | 84 | 144 | 0.0 | 0.0 | 0.00 | 0.00 | 0.00 | 49 | |
| 20260905173523 | 83 | 144 | 0.0 | 0.0 | 0.00 | 0.00 | 0.00 | 51 | |
| 20260905173018 | 82 | 144 | 0.0 | 3.0 | 0.00 | 0.00 | 0.00 | 51 | |
| 20260905172521 | 81 | 249 | 0.0 | 3.0 | 0.00 | 0.00 | 0.00 | 53 | |
| 20260905172018 | 80 | 109 | 0.0 | 0.0 | 0.00 | 0.00 | 0.00 | 54 | |
| 20260905171504 | 79 | 108 | 0.0 | 0.0 | 0.00 | 0.00 | 0.00 | 57 | |
| 20260905170956 | 78 | 151 | 0.0 | 1.0 | 0.00 | 0.00 | 0.00 | 59 | |
| 20260905170436 | 77 | 159 | 0.0 | 0.0 | 0.00 | 0.00 | 0.00 | 61 | |
| 20260905165924 | 75 | 311 | 0.0 | 0.0 | 0.00 | 0.00 | 0.00 | 65 | |
| 20260905165409 | 74 | 311 | 0.0 | 0.0 | 0.00 | 0.00 | 0.00 | 66 | |
| 20260905164919 | 72 | 311 | 0.0 | 2.0 | 0.00 | 0.00 | 0.00 | 69 | |
| 20260905164417 | 71 | 311 | 0.0 | 2.0 | 0.00 | 0.00 | 0.00 | 72 | |
| 20260905163916 | 69 | 311 | 0.0 | 0.0 | 0.00 | 0.00 | 0.00 | 77 | |
| 20260905163423 | 68 | 311 | 0.0 | 0.0 | 0.00 | 0.00 | 0.00 | 82 | |
| 20260905162913 | 67 | 311 | 0.0 | 0.0 | 0.00 | 0.00 | 0.00 | 87 | |
| 20260905162353 | 65 | 311 | 0.0 | 0.0 | 0.00 | 0.00 | 0.00 | 88 | |
| 20260905161853 | 64 | 311 | 0.0 | 1.0 | 0.00 | 0.00 | 0.00 | 91 | |
| 20260905161347 | 63 | 311 | 0.0 | 0.0 | 0.00 | 0.00 | 0.00 | 94 | |
| 20260905160855 | 63 | 311 | 0.0 | 0.0 | 0.00 | 0.00 | 0.00 | 95 | |
| 20260905160341 | 62 | 311 | 0.0 | 0.0 | 0.00 | 0.00 | 0.00 | 95 | |
| 20260905155828 | 61 | 311 | 0.0 | 0.0 | 0.00 | 0.00 | 0.00 | 95 | |
| 20260905155310 | 59 | 311 | 0.0 | 0.0 | 0.00 | 0.00 | 0.00 | 95 | |
| 20260905154813 | 59 | 311 | 0.0 | 0.0 | 0.00 | 0.00 | 0.00 | 95 | |
| 20260905153707 | 57 | 311 | 0.0 | 0.0 | 0.00 | 0.00 | 0.00 | 94 | |
| 20260905153207 | 57 | 311 | 0.0 | 0.0 | 0.00 | 0.00 | 0.00 | 94 | |
| 20260905152657 | 56 | 311 | 0.0 | 0.0 | 0.00 | 0.00 | 0.00 | 94 | |
| 20260905152145 | 56 | 311 | 0.0 | 0.0 | 0.00 | 0.00 | 0.00 | 93 | |
| 20260905151626 | 56 | 311 | 0.0 | 0.0 | 0.00 | 0.00 | 0.00 | 93 | |
| 20260905151119 | 55 | 311 | 0.0 | 0.0 | 0.00 | 0.00 | 0.00 | 93 | |
| 20260905150615 | 55 | 311 | 0.0 | 0.0 | 0.00 | 0.00 | 0.00 | 93 | |
| 20260905150115 | 55 | 311 | 0.0 | 0.0 | 0.00 | 0.00 | 0.00 | 93 | |
| 20260905145608 | 55 | 311 | 0.0 | 0.0 | 0.00 | 0.00 | 0.00 | 93 | |
| 20260905145103 | 54 | 311 | 0.0 | 0.0 | 0.00 | 0.00 | 0.00 | 92 | |
| 20260905144552 | 54 | 311 | 0.0 | 0.0 | 0.00 | 0.00 | 0.00 | 92 | |
| 20260905144036 | 54 | 311 | 0.0 | 0.0 | 0.00 | 0.00 | 0.00 | 91 | |
| 20260905143544 | 54 | 311 | 0.0 | 0.0 | 0.00 | 0.00 | 0.00 | 92 | |
| 20260905143041 | 54 | 311 | 0.0 | 0.0 | 0.00 | 0.00 | 0.00 | 91 | |
| 20260905142537 | 54 | 311 | 0.0 | 0.0 | 0.00 | 0.00 | 0.00 | 91 | |
| 20260905141427 | 54 | 311 | 0.0 | 0.0 | 0.00 | 0.00 | 0.00 | 91 | |
| 20260905140908 | 54 | 311 | 0.0 | 0.0 | 0.00 | 0.00 | 0.00 | 91 | |
| 20260905140406 | 54 | 311 | 0.0 | 0.0 | 0.00 | 0.00 | 0.00 | 91 | |
| 20260905135854 | 54 | 311 | 0.0 | 0.0 | 0.00 | 0.00 | 0.00 | 91 | |
| 20260905135347 | 55 | 311 | 0.0 | 0.0 | 0.00 | 0.00 | 0.00 | 91 | |
| 20260905134853 | 55 | 311 | 0.0 | 0.0 | 0.00 | 0.00 | 0.00 | 91 | |
| 20260905133721 | 55 | 311 | 0.0 | 0.0 | 0.00 | 0.00 | 0.00 | 91 | |
| 20260905133232 | 55 | 311 | 0.0 | 0.0 | 0.00 | 0.00 | 0.00 | 91 | |
| 20260905132737 | 55 | 311 | 0.0 | 0.0 | 0.00 | 0.00 | 0.00 | 91 | |
| 20260905131621 | 55 | 311 | 0.0 | 0.0 | 0.00 | 0.00 | 0.00 | 91 | |
| 20260905131117 | 55 | 311 | 0.0 | 0.0 | 0.00 | 0.00 | 0.00 | 91 | |
| 20260905130605 | 55 | 311 | 0.0 | 0.0 | 0.00 | 0.00 | 0.00 | 91 | |
| 20260905130052 | 55 | 311 | 0.0 | 0.0 | 0.00 | 0.00 | 0.00 | 91 | |
| 20260905125555 | 55 | 311 | 0.0 | 1.0 | 0.00 | 0.00 | 0.00 | 91 | |
| 20260905125045 | 55 | 311 | 0.0 | 0.0 | 0.00 | 0.00 | 0.00 | 91 | |
| 20260905124551 | 55 | 311 | 0.0 | 0.0 | 0.00 | 0.00 | 0.00 | 91 | |
| 20260905124051 | 55 | 311 | 0.0 | 0.0 | 0.00 | 0.00 | 0.00 | 91 | |
| 20260905123555 | 55 | 311 | 0.0 | 0.0 | 0.00 | 0.00 | 0.00 | 91 | |
| 20260905123058 | 55 | 311 | 0.0 | 0.0 | 0.00 | 0.00 | 0.00 | 91 | |
| 20260905122547 | 56 | 311 | 0.0 | 0.0 | 0.00 | 0.00 | 0.00 | 90 | |
| 20260905122037 | 56 | 311 | 0.0 | 0.0 | 0.00 | 0.00 | 0.00 | 90 | |
| 20260905121545 | 56 | 311 | 0.0 | 0.0 | 0.00 | 0.00 | 0.00 | 90 | |
| 20260905120412 | 56 | 311 | 0.0 | 1.0 | 0.00 | 0.00 | 0.00 | 90 | |
| 20260905115915 | 56 | 311 | 0.0 | 0.0 | 0.00 | 0.00 | 0.00 | 90 | |
| 20260905115425 | 56 | 311 | 0.0 | 0.0 | 0.00 | 0.00 | 0.00 | 90 | |
| 20260905114914 | 56 | 311 | 0.0 | 0.0 | 0.00 | 0.00 | 0.00 | 90 | |
| 20260905114414 | 56 | 311 | 0.0 | 0.0 | 0.00 | 0.00 | 0.00 | 90 | |
| 20260905113918 | 56 | 311 | 0.0 | 0.0 | 0.00 | 0.00 | 0.00 | 90 | |
| 20260905113424 | 56 | 311 | 0.0 | 0.0 | 0.00 | 0.00 | 0.00 | 90 | |
| 20260905112909 | 56 | 311 | 0.0 | 0.0 | 0.00 | 0.00 | 0.00 | 90 | |
| 20260905112400 | 56 | 311 | 0.0 | 0.0 | 0.00 | 0.00 | 0.00 | 90 | |
| 20260905111234 | 56 | 311 | 0.0 | 0.0 | 0.00 | 0.00 | 0.00 | 90 | |
| 20260905110714 | 56 | 311 | 0.0 | 0.0 | 0.00 | 0.00 | 0.00 | 90 | |
| 20260905110208 | 56 | 311 | 0.0 | 0.0 | 0.00 | 0.00 | 0.00 | 89 | |
| 20260905105654 | 57 | 311 | 0.0 | 2.0 | 0.00 | 0.00 | 0.00 | 89 | |
| 20260905105150 | 57 | 311 | 0.0 | 0.0 | 0.00 | 0.00 | 0.00 | 88 | |
| 20260905104651 | 57 | 311 | 0.0 | 0.0 | 0.00 | 0.00 | 0.00 | 89 | |
| 20260905104133 | 57 | 311 | 0.0 | 0.0 | 0.00 | 0.00 | 0.00 | 89 | |
| 20260905103613 | 57 | 311 | 0.0 | 0.0 | 0.00 | 0.00 | 0.00 | 89 | |
| 20260905103104 | 57 | 311 | 0.0 | 0.0 | 0.00 | 0.00 | 0.00 | 89 | |
| 20260905102603 | 57 | 311 | 0.0 | 0.0 | 0.00 | 0.00 | 0.00 | 89 | |
| 20260905102106 | 57 | 311 | 0.0 | 0.0 | 0.00 | 0.00 | 0.00 | 89 | |
| 20260905100333 | 58 | 311 | 0.0 | 0.0 | 0.00 | 0.00 | 0.00 | 89 | |
| 20260905095834 | 58 | 311 | 0.0 | 0.0 | 0.00 | 0.00 | 0.00 | 89 | |
| 20260905095339 | 58 | 311 | 0.0 | 0.0 | 0.00 | 0.00 | 0.00 | 88 | |
| 20260905094824 | 58 | 311 | 0.0 | 0.0 | 0.00 | 0.00 | 0.00 | 88 | |
| 20260905094331 | 58 | 311 | 0.0 | 0.0 | 0.00 | 0.00 | 0.00 | 88 | |
| 20260905092601 | 58 | 311 | 0.0 | 0.0 | 0.00 | 0.00 | 0.00 | 88 | |
| 20260905092043 | 58 | 311 | 0.0 | 0.0 | 0.00 | 0.00 | 0.00 | 88 | |
| 20260905091542 | 58 | 311 | 0.0 | 0.0 | 0.00 | 0.00 | 0.00 | 87 | |
| 20260905091034 | 59 | 311 | 0.0 | 0.0 | 0.00 | 0.00 | 0.00 | 88 | |
| 20260905090515 | 59 | 311 | 0.0 | 0.0 | 0.00 | 0.00 | 0.00 | 88 | |
| 20260905085411 | 59 | 311 | 0.0 | 0.0 | 0.00 | 0.00 | 0.00 | 87 | |
| 20260905084901 | 59 | 311 | 0.0 | 0.0 | 0.00 | 0.00 | 0.00 | 87 | |
| 20260905084351 | 59 | 311 | 0.0 | 0.0 | 0.00 | 0.00 | 0.00 | 87 | |
| 20260905081948 | 60 | 311 | 0.0 | 0.0 | 0.00 | 0.00 | 0.00 | 87 | |
| 20260905081447 | 60 | 311 | 0.0 | 0.0 | 0.00 | 0.00 | 0.00 | 87 | |
| 20260905080952 | 60 | 311 | 0.0 | 0.0 | 0.00 | 0.00 | 0.00 | 87 | |
| 20260905080445 | 60 | 311 | 0.0 | 0.0 | 0.00 | 0.00 | 0.00 | 87 |